Location: Krasnoyarskiy Pitomnik
(51.1333°N, 71.6167°E)
Time: 15:36:24
(UTC+00:00)

Okean O Rocket - Pass Details

Date: 22 October 2021
Orbit: 623 x 643 km, 98.2° (Epoch: 26 November)

Event Time Altitude Azimuth Distance (km) Brightness Sun altitude
Rises 13:36:57 0° 175° (S) 2,894 4.9 -14.8°
Reaches altitude 10° 13:39:09 10° 180° (S) 1,993 4.2 -15.2°
Maximum altitude 13:43:25 56° 259° (W) 748 2.3 -15.9°
Drops below altitude 10° 13:47:44 10° 338° (NNW) 2,016 4.5 -16.5°
Sets 13:49:59 0° 343° (NNW) 2,931 5.3 -16.9°
